DD3UTS-13 Weather Reports


time (UTC)temp
C
wind
direction
speed
KPH
gust
KPH
rain 1hr
cm
rain 24hr
cm
rain mn
cm
humidity
%
barometer
mb
20260504012031 16 250 8.0 0.0 0.00 0.00 0.00 53 1012.4
20260504011531 16 282 11.3 0.0 0.00 0.00 0.00 52 1012.4
20260504011031 16 237 8.0 0.0 0.00 0.00 0.00 53 1012.5
20260504010533 15 197 9.7 0.0 0.00 0.00 0.00 53 1012.6
20260504010032 15 197 8.0 0.0 0.00 0.00 0.00 53 1012.5
20260504005532 15 190 8.0 0.0 0.00 0.00 0.00 53 1012.6
20260504005031 15 207 8.0 0.0 0.00 0.00 0.00 53 1012.5
20260504004532 16 195 8.0 0.0 0.00 0.00 0.00 53 1012.3
20260504004032 16 202 8.0 0.0 0.00 0.00 0.00 53 1012.4
20260504003531 16 195 8.0 0.0 0.00 0.00 0.00 52 1012.5
20260504003032 16 205 9.7 0.0 0.00 0.00 0.00 52 1012.4
20260504002531 16 205 9.7 0.0 0.00 0.00 0.00 52 1012.4
20260504002031 16 230 8.0 0.0 0.00 0.00 0.00 52 1012.4
20260504001531 16 195 8.0 0.0 0.00 0.00 0.00 52 1012.4
20260504001031 16 200 8.0 0.0 0.00 0.00 0.00 52 1012.3
20260504000531 16 190 8.0 0.0 0.00 0.00 0.00 52 1012.2
20260504000032 16 230 8.0 0.0 0.00 0.00 0.00 52 1012.2
20260503235531 16 195 8.0 0.0 0.00 0.00 0.00 51 1012.1
20260503235032 16 175 8.0 0.0 0.00 0.00 0.00 51 1012.1
20260503234532 16 202 8.0 0.0 0.00 0.00 0.00 51 1012.0
20260503234031 16 200 8.0 0.0 0.00 0.00 0.00 50 1012.1
20260503233531 16 180 6.4 0.0 0.00 0.00 0.00 50 1012.1
20260503233031 16 200 6.4 0.0 0.00 0.00 0.00 50 1012.1
20260503232532 17 235 4.8 0.0 0.00 0.00 0.00 49 1012.2
20260503232032 17 265 9.7 0.0 0.00 0.00 0.00 48 1012.1
20260503231532 17 265 9.7 0.0 0.00 0.00 0.00 47 1012.1
20260503231031 17 277 9.7 0.0 0.00 0.00 0.00 47 1012.0
20260503230532 17 267 8.0 0.0 0.00 0.00 0.00 47 1012.0
20260503230031 17 302 9.7 0.0 0.00 0.00 0.00 47 1012.0
20260503225532 17 287 11.3 0.0 0.00 0.00 0.00 47 1011.9
20260503225031 17 240 8.0 0.0 0.00 0.00 0.00 47 1011.9
20260503224531 18 267 14.5 0.0 0.00 0.00 0.00 46 1011.9
20260503224032 18 282 12.9 0.0 0.00 0.00 0.00 45 1011.8
20260503223532 18 267 12.9 0.0 0.00 0.00 0.00 45 1011.8
20260503223031 17 285 16.1 0.0 0.00 0.00 0.00 45 1011.7
20260503222531 17 262 8.0 0.0 0.00 0.00 0.00 45 1011.7
20260503222031 17 262 6.4 0.0 0.00 0.00 0.00 44 1011.6
20260503221531 18 260 9.7 0.0 0.00 0.00 0.00 43 1011.6
20260503221032 18 260 11.3 0.0 0.00 0.00 0.00 43 1011.5
20260503220532 18 225 9.7 0.0 0.00 0.00 0.00 43 1011.5
20260503220032 18 210 12.9 0.0 0.00 0.00 0.00 41 1011.4
20260503215532 18 245 14.5 0.0 0.00 0.00 0.00 42 1011.4
20260503215032 18 247 11.3 0.0 0.00 0.00 0.00 41 1011.4
20260503214531 18 255 9.7 0.0 0.00 0.00 0.00 41 1011.4
20260503214032 18 315 11.3 0.0 0.00 0.00 0.00 40 1011.3
20260503213532 19 267 12.9 0.0 0.00 0.00 0.00 40 1011.3
20260503213032 19 267 12.9 0.0 0.00 0.00 0.00 40 1011.2
20260503212532 19 315 9.7 0.0 0.00 0.00 0.00 39 1011.0
20260503212032 19 95 6.4 0.0 0.00 0.00 0.00 39 1010.9
20260503211532 20 282 9.7 0.0 0.00 0.00 0.00 39 1010.9
20260503211032 20 135 12.9 0.0 0.00 0.00 0.00 37 1010.9
20260503210531 20 145 17.7 0.0 0.00 0.00 0.00 37 1010.8
20260503210032 20 145 20.9 0.0 0.00 0.00 0.00 37 1010.6
20260503205531 20 145 20.9 0.0 0.00 0.00 0.00 37 1010.5
20260503205032 20 145 17.7 0.0 0.00 0.00 0.00 37 1010.5
20260503204531 20 132 17.7 0.0 0.00 0.00 0.00 37 1010.6
20260503204032 20 135 16.1 0.0 0.00 0.00 0.00 37 1010.6
20260503203532 20 140 16.1 0.0 0.00 0.00 0.00 37 1010.6
20260503203032 20 147 16.1 0.0 0.00 0.00 0.00 37 1010.6
20260503202532 20 135 16.1 0.0 0.00 0.00 0.00 37 1010.5
20260503202032 20 140 14.5 0.0 0.00 0.00 0.00 37 1010.6
20260503201532 20 140 17.7 0.0 0.00 0.00 0.00 37 1010.6
20260503201032 20 137 16.1 0.0 0.00 0.00 0.00 37 1010.7
20260503200531 20 137 14.5 0.0 0.00 0.00 0.00 37 1010.6
20260503200032 20 137 12.9 0.0 0.00 0.00 0.00 37 1010.7
20260503195532 20 125 9.7 0.0 0.00 0.00 0.00 37 1010.8
20260503195031 20 130 12.9 0.0 0.00 0.00 0.00 36 1010.8
20260503194532 20 127 11.3 0.0 0.00 0.00 0.00 35 1010.8
20260503194031 20 135 12.9 0.0 0.00 0.00 0.00 35 1010.8
20260503193531 20 127 14.5 0.0 0.00 0.00 0.00 34 1010.9
20260503193032 21 142 16.1 0.0 0.00 0.00 0.00 34 1010.9
20260503192531 21 135 12.9 0.0 0.00 0.00 0.00 34 1010.9
20260503192032 21 125 14.5 0.0 0.00 0.00 0.00 34 1010.9
20260503191531 21 125 14.5 0.0 0.00 0.00 0.00 34 1010.9
20260503191031 21 132 12.9 0.0 0.00 0.00 0.00 34 1011.0
20260503190531 21 132 12.9 0.0 0.00 0.00 0.00 34 1011.0
20260503190032 21 132 14.5 0.0 0.00 0.00 0.00 34 1011.0
20260503185532 21 130 11.3 0.0 0.00 0.00 0.00 34 1011.0
20260503185031 21 137 14.5 0.0 0.00 0.00 0.00 34 1011.0
20260503184532 21 130 12.9 0.0 0.00 0.00 0.00 34 1011.0
20260503184031 21 132 14.5 0.0 0.00 0.00 0.00 34 1010.9
20260503183531 21 130 12.9 0.0 0.00 0.00 0.00 34 1010.9
20260503183033 21 130 12.9 0.0 0.00 0.00 0.00 34 1011.0
20260503182531 21 135 11.3 0.0 0.00 0.00 0.00 34 1010.9
20260503182032 21 132 11.3 0.0 0.00 0.00 0.00 34 1010.9
20260503181532 21 140 12.9 0.0 0.00 0.00 0.00 34 1010.9
20260503181032 21 135 12.9 0.0 0.00 0.00 0.00 34 1010.9
20260503180532 21 145 12.9 0.0 0.00 0.00 0.00 34 1010.9
20260503180032 21 137 14.5 0.0 0.00 0.00 0.00 34 1011.0
20260503175532 21 135 12.9 0.0 0.00 0.00 0.00 34 1010.9
20260503175031 21 132 11.3 0.0 0.00 0.00 0.00 34 1011.0
20260503174531 21 130 11.3 0.0 0.00 0.00 0.00 35 1011.0
20260503174031 21 140 9.7 0.0 0.00 0.00 0.00 35 1011.0
20260503173532 21 125 11.3 0.0 0.00 0.00 0.00 35 1011.1
20260503173031 21 132 9.7 0.0 0.00 0.00 0.00 35 1011.1
20260503172532 21 132 9.7 0.0 0.00 0.00 0.00 36 1011.2
20260503172031 21 135 9.7 0.0 0.00 0.00 0.00 35 1011.2
20260503171532 22 125 9.7 0.0 0.00 0.00 0.00 35 1011.2
20260503171031 22 135 11.3 0.0 0.00 0.00 0.00 36 1011.2
20260503170532 22 135 11.3 0.0 0.00 0.00 0.00 36 1011.2
20260503150532 26 185 12.9 0.0 0.00 0.00 0.00 25 1012.2
20260503131031 26 195 19.3 0.0 0.00 0.00 0.00 24 1013.2
20260503130531 26 210 19.3 0.0 0.00 0.00 0.00 24 1013.2
20260503110531 26 192 22.5 0.0 0.00 0.00 0.00 25 1014.1
20260503081532 25 115 9.7 0.0 0.00 0.00 0.00 38 1014.8
20260503081031 24 127 9.7 0.0 0.00 0.00 0.00 38 1014.8
20260503080531 24 185 12.9 0.0 0.00 0.00 0.00 32 1014.8
20260503072532 22 192 16.1 0.0 0.00 0.00 0.00 35 1014.8
20260503072031 22 190 14.5 0.0 0.00 0.00 0.00 34 1014.7
20260503071531 22 187 14.5 0.0 0.00 0.00 0.00 35 1014.7
20260503071032 22 190 14.5 0.0 0.00 0.00 0.00 36 1014.7
20260503070531 21 200 14.5 0.0 0.00 0.00 0.00 36 1014.7
20260503055031 17 190 16.1 0.0 0.00 0.00 0.00 43 1014.7
20260503054531 17 187 16.1 0.0 0.00 0.00 0.00 42 1014.6
20260503054032 17 190 14.5 0.0 0.00 0.00 0.00 43 1014.7
20260503053531 16 190 14.5 0.0 0.00 0.00 0.00 43 1014.6
20260503053031 16 187 14.5 0.0 0.00 0.00 0.00 44 1014.6
20260503052532 16 187 14.5 0.0 0.00 0.00 0.00 44 1014.6
20260503052032 16 187 12.9 0.0 0.00 0.00 0.00 44 1014.5
20260503051531 16 190 14.5 0.0 0.00 0.00 0.00 43 1014.6
20260503051031 16 195 16.1 0.0 0.00 0.00 0.00 42 1014.6
20260503050531 15 205 16.1 0.0 0.00 0.00 0.00 43 1014.5
20260503050031 15 207 14.5 0.0 0.00 0.00 0.00 43 1014.5
20260503045532 15 195 14.5 0.0 0.00 0.00 0.00 43 1014.5
20260503045032 15 192 12.9 0.0 0.00 0.00 0.00 43 1014.5
20260503044532 15 187 12.9 0.0 0.00 0.00 0.00 42 1014.5
20260503044031 15 195 12.9 0.0 0.00 0.00 0.00 42 1014.5
20260503043531 15 197 14.5 0.0 0.00 0.00 0.00 41 1014.5
20260503043031 15 190 14.5 0.0 0.00 0.00 0.00 41 1014.5
20260503042532 15 192 16.1 0.0 0.00 0.00 0.00 40 1014.4
20260503042031 15 195 16.1 0.0 0.00 0.00 0.00 40 1014.4
20260503041532 15 207 14.5 0.0 0.00 0.00 0.00 40 1014.4
20260503041031 15 205 17.7 0.0 0.00 0.00 0.00 40 1014.4
20260503040532 15 205 14.5 0.0 0.00 0.00 0.00 40 1014.4
20260503040032 15 202 17.7 0.0 0.00 0.00 0.00 40 1014.4
20260503035532 15 195 16.1 0.0 0.00 0.00 0.00 40 1014.5
20260503035031 15 195 17.7 0.0 0.00 0.00 0.00 40 1014.4
20260503034532 15 200 17.7 0.0 0.00 0.00 0.00 41 1014.4
20260503034031 15 210 14.5 0.0 0.00 0.00 0.00 41 1014.4
20260503033532 15 200 16.1 0.0 0.00 0.00 0.00 41 1014.5
20260503033032 15 205 17.7 0.0 0.00 0.00 0.00 41 1014.5
20260503032531 14 205 16.1 0.0 0.00 0.00 0.00 42 1014.6
20260503032031 14 210 16.1 0.0 0.00 0.00 0.00 42 1014.6
20260503031532 14 207 16.1 0.0 0.00 0.00 0.00 42 1014.5
20260503031032 13 190 14.5 0.0 0.00 0.00 0.00 43 1014.5
20260503030531 13 197 12.9 0.0 0.00 0.00 0.00 44 1014.6
20260503030032 13 190 11.3 0.0 0.00 0.00 0.00 44 1014.6
20260503025531 13 192 12.9 0.0 0.00 0.00 0.00 43 1014.6
20260503025031 13 185 12.9 0.0 0.00 0.00 0.00 43 1014.7
20260503024532 13 187 12.9 0.0 0.00 0.00 0.00 43 1014.7
20260503024031 14 185 14.5 0.0 0.00 0.00 0.00 42 1014.8
20260503023531 14 192 14.5 0.0 0.00 0.00 0.00 42 1014.8
20260503023031 14 192 12.9 0.0 0.00 0.00 0.00 41 1014.8
20260503022531 15 197 16.1 0.0 0.00 0.00 0.00 40 1014.8
20260503022031 15 187 16.1 0.0 0.00 0.00 0.00 39 1014.8
20260503021531 15 180 19.3 0.0 0.00 0.00 0.00 39 1014.9
20260503021032 15 185 17.7 0.0 0.00 0.00 0.00 39 1014.9
20260503020531 15 182 17.7 0.0 0.00 0.00 0.00 39 1014.8
20260503020032 15 187 16.1 0.0 0.00 0.00 0.00 40 1014.9
20260503015531 14 185 16.1 0.0 0.00 0.00 0.00 41 1015.0
20260503015031 14 190 16.1 0.0 0.00 0.00 0.00 41 1015.0
20260503014532 14 187 14.5 0.0 0.00 0.00 0.00 42 1015.0
20260503014031 14 192 14.5 0.0 0.00 0.00 0.00 41 1015.0
20260503013531 14 192 16.1 0.0 0.00 0.00 0.00 41 1015.0
20260503013031 15 195 14.5 0.0 0.00 0.00 0.00 41 1015.1
20260503012532 15 200 14.5 0.0 0.00 0.00 0.00 40 1015.1